Weather History for Cleveland Burke, OH

Change the Weather History Date:

Friday, January 3, 2014

  Actual Average Record
Temperature  
Mean Temperature 13 °F -  
Max Temperature 16 °F 36 °F 62 °F (2004)
Min Temperature 10 °F 25 °F 10 °F (2014)
Degree Days  
Heating Degree Days 52    
Moisture  
Dew Point 5 °F    
Average Humidity 68    
Maximum Humidity 79    
Minimum Humidity 56    
Precipitation  
Precipitation 0.00 in - - ()
Sea Level Pressure  
Sea Level Pressure 30.34 in    
Wind  
Wind Speed 17 mph (WNW)    
Max Wind Speed 25 mph    
Max Gust Speed 34 mph    
Visibility 8 miles    
Events Snow    
Averages and records for this station are not official NWS values.
T = Trace of Precipitation, MM = Missing Value Source: NWS Daily Summary

Daily Weather History Graph

Daily Weather History Graph

Search for Another Location

Airport:

Trip Planner

Search our weather history database for the weather conditions in past years. The results will help you decide how hot, cold, wet, or windy it might be!

Date:

Astronomy

Jan. 03, 2014 Rise Set
Actual Time 7:53 AM EST 5:09 PM EST
Civil Twilight 7:22 AM EST 5:40 PM EST
Nautical Twilight 6:47 AM EST 6:15 PM EST
Astronomical Twilight 6:13 AM EST 6:48 PM EST
Moon 9:16 AM EST (1/3) 8:19 PM EST (1/3)
Length of Visible Light 10h 18m
Length of Day
9h 15m
Waxing Crescent, 8% of the Moon is Illuminated
Jan 3
Waxing Crescent
Jan 7
First Quarter
Jan 15
Full
Jan 24
Last Quarter
Jan 30
New

Hourly Weather History & Observations

Time (EST) Temp. Windchill Dew Point Humidity Pressure Visibility Wind Dir Wind Speed Gust Speed Precip Events Conditions
12:09 AM 15.8 °F -1.9 °F 3.2 °F 58% 30.12 in 10.0 mi North 21.9 mph 32.2 mph N/A   Overcast
12:53 AM 15.1 °F -4.0 °F 3.9 °F 61% 30.17 in 10.0 mi North 25.3 mph 34.5 mph N/A   Mostly Cloudy
1:45 AM 15.8 °F -1.9 °F 6.8 °F 68% 30.16 in 10.0 mi North 21.9 mph 31.1 mph N/A   Overcast
1:53 AM 16.0 °F -1.7 °F 8.1 °F 71% 30.19 in 9.0 mi NNW 21.9 mph 31.1 mph 0.00 in Snow Light Snow
2:53 AM 14.0 °F -4.3 °F 8.1 °F 77% 30.25 in 10.0 mi NNW 21.9 mph 28.8 mph 0.00 in   Overcast
3:53 AM 12.9 °F -6.1 °F 7.0 °F 77% 30.27 in 10.0 mi NNW 23.0 mph 27.6 mph N/A   Overcast
4:53 AM 12.9 °F -4.9 °F 7.0 °F 77% 30.30 in 6.0 mi NNW 19.6 mph 27.6 mph 0.00 in Snow Light Snow
5:40 AM 12.2 °F -5.3 °F 6.8 °F 79% 30.28 in 2.0 mi North 18.4 mph 24.2 mph 0.00 in Snow Light Snow
5:53 AM 12.9 °F -2.2 °F 6.1 °F 74% 30.32 in 3.0 mi NNW 13.8 mph - 0.00 in Snow Light Snow
6:53 AM 12.0 °F -2.7 °F 6.1 °F 77% 30.35 in 8.0 mi NW 12.7 mph - 0.00 in Snow Light Snow
7:53 AM 12.0 °F -2.7 °F 6.1 °F 77% 30.38 in 9.0 mi NNW 12.7 mph - 0.00 in   Overcast
8:53 AM 12.0 °F -3.4 °F 5.0 °F 73% 30.40 in 9.0 mi North 13.8 mph 19.6 mph 0.00 in   Overcast
9:53 AM 12.9 °F -0.9 °F 6.1 °F 74% 30.42 in 5.0 mi NW 11.5 mph - 0.00 in Snow Light Snow
10:53 AM 12.9 °F 1.6 °F 6.1 °F 74% 30.44 in 5.0 mi NW 8.1 mph - 0.00 in Snow Light Snow
11:53 AM 12.9 °F 1.6 °F 5.0 °F 71% 30.43 in 5.0 mi WNW 8.1 mph - 0.00 in Snow Light Snow
12:53 PM 14.0 °F 1.2 °F 5.0 °F 67% 30.43 in 9.0 mi West 10.4 mph - 0.00 in Snow Light Snow
1:53 PM 12.9 °F 1.6 °F 5.0 °F 71% 30.42 in 10.0 mi WSW 8.1 mph - 0.00 in   Mostly Cloudy
2:53 PM 14.0 °F 2.9 °F 6.1 °F 71% 30.41 in 8.0 mi WSW 8.1 mph - 0.00 in Snow Light Snow
3:53 PM 15.1 °F 4.2 °F 6.1 °F 68% 30.43 in 10.0 mi SW 8.1 mph - 0.00 in   Mostly Cloudy
4:11 PM 14.0 °F 2.9 °F 3.2 °F 62% 30.39 in 10.0 mi SW 8.1 mph - N/A   Scattered Clouds
4:53 PM 12.9 °F -1.6 °F 1.0 °F 59% 30.44 in 10.0 mi SW 12.7 mph - N/A   Clear
5:53 PM 12.0 °F 0.5 °F -0.0 °F 59% 30.43 in 10.0 mi SSW 8.1 mph - N/A   Clear
6:53 PM 12.0 °F -0.4 °F 1.9 °F 64% 30.40 in 10.0 mi SSE 9.2 mph - N/A   Clear
7:53 PM 10.9 °F -3.4 °F 1.0 °F 64% 30.40 in 10.0 mi SSE 11.5 mph - N/A   Scattered Clouds
8:53 PM 12.0 °F -1.3 °F 1.9 °F 64% 30.37 in 10.0 mi SSE 10.4 mph - N/A   Overcast
9:53 PM 12.0 °F -2.0 °F 1.0 °F 61% 30.35 in 10.0 mi SSE 11.5 mph - N/A   Overcast
10:53 PM 14.0 °F -0.2 °F 1.9 °F 59% 30.31 in 10.0 mi South 12.7 mph 20.7 mph N/A   Overcast
11:53 PM 15.1 °F -1.1 °F 1.9 °F 56% 30.27 in 10.0 mi South 17.3 mph 25.3 mph N/A   Clear